Location: *
(52.2090°N, 4.1550°W)
Time: 02:32:39
(UTC+00:00)

Helios 1A - Pass Details

Date: 19 July 2019
Orbit: 585 x 603 km, 98.2° (Epoch: 18 August)

Event Time Altitude Azimuth Distance (km) Brightness Sun altitude
Exits shadow 22:04:17 13° 123° (ESE) 1,706 4.8 -11.0°
Maximum altitude 22:07:23 32° 65° (ENE) 1,027 4.1 -11.3°
Drops below altitude 10° 22:11:06 10° 2° (N) 1,925 6.5 -11.6°
Sets 22:13:25 0° 352° (N) 2,829 7.8 -11.8°
